User: anonymous   Login
Location: Kelshall
(52.0000°N, 0.0500°W)
Time: 04:44:36
(UTC+00:00)
Language:

Lacrosse 4 Rocket - Orbit

View from above orbital plane
View from above orbital plane
View from above satellite
View from above satellite

Ground track
Ground track

The orbit data is extracted from the following two-line orbital elements,

1 26474U 00047B   21208.53201567  .00000292  00000-0  36055-4 0  9992
2 26474  67.9938  40.5015 0051528 114.1286 246.5258 14.96186515139838
Epoch (UTC): 27 July 2021 12:46:06
Eccentricity: 0.0051528
inclination: 67.9938°
perigee height: 543 km
apogee height: 614 km
right ascension of ascending node: 40.5015°
argument of perigee: 114.1286°
revolutions per day: 14.96186515
mean anomaly at epoch: 246.5258°
orbit number at epoch: 13983

The dashed part of the orbit path shows where the satellite is in the earth's shadow,  

DLR